This is the latest recevied weather packets stored in our database for station/object KC8ZBC. If no packets are shown the sender has not sent any weather packets the latest 10 day(s).
| Time | Temp. | Humidity | Pressure | Rain* | Wind** | Luminosity | Snow |
|---|---|---|---|---|---|---|---|
| 1777126329 | 6.67° C | 99% | 987.8 hPa | 0 mm | - | 33 W/m² | - |
| 1777126025 | 6.67° C | 99% | 987.7 hPa | 0 mm | - | 43 W/m² | - |
| 1777125723 | 7.22° C | 99% | 987.7 hPa | 0 mm | - | 43 W/m² | - |
| 1777125418 | 7.22° C | 99% | 987.8 hPa | 0 mm | - | 46 W/m² | - |
| 1777125113 | 7.78° C | 99% | 987.6 hPa | 0 mm | - | 38 W/m² | - |
| 1777124809 | 7.78° C | 99% | 987.7 hPa | 0 mm | - | 51 W/m² | - |
| 1777124504 | 7.78° C | 99% | 987.5 hPa | 0 mm | - | 66 W/m² | - |
| 1777124201 | 7.78° C | 99% | 987.5 hPa | 0 mm | - | 64 W/m² | - |
| 1777123898 | 7.78° C | 99% | 987.4 hPa | 0 mm | - | 32 W/m² | - |
| 1777123595 | 7.78° C | 99% | 987.3 hPa | 0 mm | - | 34 W/m² | - |
| 1777123291 | 7.78° C | 99% | 987.3 hPa | 0 mm | - | 29 W/m² | - |
| 1777122987 | 8.33° C | 99% | 987.3 hPa | 0 mm | - | 34 W/m² | - |
| 1777122683 | 8.33° C | 99% | 987 hPa | 0 mm | - | 24 W/m² | - |
| 1777122378 | 8.33° C | 99% | 987.1 hPa | 0 mm | - | 22 W/m² | - |
| 1777122076 | 8.33° C | 99% | 986.9 hPa | 0 mm | - | 24 W/m² | - |
| 1777121771 | 8.33° C | 99% | 986.8 hPa | 0 mm | - | 23 W/m² | - |
| 1777121469 | 8.89° C | 99% | 986.6 hPa | 0 mm | - | 21 W/m² | - |
| 1777121168 | 8.89° C | 99% | 986.8 hPa | 0 mm | - | 11 W/m² | - |
| 1777120867 | 9.44° C | 99% | 986.5 hPa | 0.51 mm | - | 10 W/m² | - |
| 1777120562 | 8.89° C | 99% | 986.5 hPa | 0.51 mm | - | 11 W/m² | - |
| 1777120258 | 9.44° C | 99% | 986.2 hPa | 0 mm | - | 15 W/m² | - |
| 1777119953 | 9.44° C | 99% | 986.2 hPa | 0 mm | - | 17 W/m² | - |
| 1777119651 | 9.44° C | 99% | 986.1 hPa | 0 mm | - | 18 W/m² | - |
| 1777119346 | 9.44° C | 99% | 986 hPa | 0 mm | - | 17 W/m² | - |
| 1777119046 | 9.44° C | 99% | 986 hPa | 0 mm | - | 7 W/m² | - |
* Rain latest hour (hover to see other rain measurements)
** Current wind speed in m/s (hover to see current wind gust speed)